Time,TemperatureF,DewpointF,PressureIn,WindDirection,WindDirectionDegrees,WindSpeedMPH,WindSpeedGustMPH,Humidity,HourlyPrecipIn,Conditions,Clouds,dailyrainin,SoftwareType,DateUTC
2013-01-27 00:02:00,51.0,-99.9,-100.00,North,-999,-999.0,-999.0,-999,-99.99,,,-99.99,,2013-01-27 08:02:00,
2013-01-27 00:12:00,52.0,-99.9,-100.00,North,-999,-999.0,-999.0,-999,-99.99,,,0.01,,2013-01-27 08:12:00,
2013-01-27 00:22:00,52.0,-99.9,-100.00,North,-999,-999.0,-999.0,-999,-99.99,,,0.01,,2013-01-27 08:22:00,
2013-01-27 00:32:00,52.0,-99.9,-100.00,North,-999,-999.0,-999.0,-999,-99.99,,,0.01,,2013-01-27 08:32:00,
2013-01-27 00:42:00,52.0,-99.9,-100.00,North,-999,-999.0,-999.0,-999,-99.99,,,0.01,,2013-01-27 08:42:00,
2013-01-27 01:32:00,-999.0,-99.9,-100.00,ESE,118,0.0,-999.0,-999,-99.99,,,-99.99,,2013-01-27 09:32:00,
2013-01-27 01:52:00,-999.0,-99.9,-100.00,ESE,106,6.0,-999.0,-999,-99.99,,,-99.99,,2013-01-27 09:52:00,
2013-01-27 02:01:00,-999.0,-99.9,-100.00,ESE,112,7.0,-999.0,-999,-99.99,,,-99.99,,2013-01-27 10:01:00,
2013-01-27 02:11:00,-999.0,-99.9,-100.00,North,-999,2.0,-999.0,-999,-99.99,,,-99.99,,2013-01-27 10:11:00,
2013-01-27 02:22:00,-999.0,-99.9,-100.00,North,-999,2.0,-999.0,-999,-99.99,,,-99.99,,2013-01-27 10:22:00,
2013-01-27 02:32:00,-999.0,-99.9,-100.00,SSE,168,5.0,-999.0,-999,-99.99,,,-99.99,,2013-01-27 10:32:00,
2013-01-27 02:42:00,-999.0,-99.9,-100.00,SSE,163,9.0,-999.0,-999,-99.99,,,-99.99,,2013-01-27 10:42:00,
2013-01-27 02:52:00,-999.0,-99.9,-100.00,SSE,157,7.0,-999.0,-999,-99.99,,,-99.99,,2013-01-27 10:52:00,
2013-01-27 03:01:00,-999.0,-99.9,-100.00,SSE,151,8.0,-999.0,-999,-99.99,,,-99.99,,2013-01-27 11:01:00,
2013-01-27 03:11:00,58.0,50.0,-100.00,North,-999,2.0,-999.0,74,-99.99,,,-99.99,,2013-01-27 11:11:00,
2013-01-27 03:22:00,-999.0,-99.9,-100.00,SE,129,7.0,-999.0,-999,-99.99,,,-99.99,,2013-01-27 11:22:00,
2013-01-27 03:32:00,-999.0,-99.9,-100.00,ESE,118,9.0,-999.0,-999,-99.99,,,-99.99,,2013-01-27 11:32:00,
2013-01-27 03:42:00,56.0,49.0,-100.00,North,-999,-999.0,-999.0,79,-99.99,,,-99.99,,2013-01-27 11:42:00,
2013-01-27 03:52:00,-999.0,-99.9,-100.00,ENE,61,5.0,-999.0,-999,-99.99,,,-99.99,,2013-01-27 11:52:00,
2013-01-27 04:03:00,-999.0,-99.9,-100.00,ENE,78,5.0,-999.0,-999,-99.99,,,-99.99,,2013-01-27 12:03:00,
2013-01-27 04:12:00,-999.0,-99.9,-100.00,SE,140,4.0,-999.0,-999,-99.99,,,-99.99,,2013-01-27 12:12:00,
2013-01-27 04:22:00,-999.0,-99.9,-100.00,SE,140,4.0,-999.0,-999,-99.99,,,-99.99,,2013-01-27 12:22:00,
2013-01-27 04:33:00,-999.0,-99.9,-100.00,South,180,12.0,-999.0,-999,-99.99,,,-99.99,,2013-01-27 12:33:00,
2013-01-27 04:42:00,-999.0,-99.9,-100.00,South,174,12.0,-999.0,-999,-99.99,,,-99.99,,2013-01-27 12:42:00,
2013-01-27 04:52:00,-999.0,-99.9,-100.00,South,174,11.0,-999.0,-999,-99.99,,,-99.99,,2013-01-27 12:52:00,
2013-01-27 05:02:00,-999.0,-99.9,-100.00,SE,146,11.0,-999.0,-999,-99.99,,,-99.99,,2013-01-27 13:02:00,
2013-01-27 05:12:00,-999.0,-99.9,-100.00,SE,140,17.0,-999.0,-999,-99.99,,,-99.99,,2013-01-27 13:12:00,
2013-01-27 05:22:00,-999.0,-99.9,-100.00,SE,129,14.0,-999.0,-999,-99.99,,,-99.99,,2013-01-27 13:22:00,
2013-01-27 05:32:00,-999.0,-99.9,-100.00,ESE,112,12.0,-999.0,-999,-99.99,,,-99.99,,2013-01-27 13:32:00,
2013-01-27 05:42:00,-999.0,-99.9,-100.00,ESE,118,9.0,-999.0,-999,-99.99,,,-99.99,,2013-01-27 13:42:00,
2013-01-27 05:52:00,-999.0,-99.9,-100.00,ESE,112,6.0,-999.0,-999,-99.99,,,-99.99,,2013-01-27 13:52:00,
2013-01-27 06:01:00,56.0,45.0,-100.00,North,-999,-999.0,-999.0,64,-99.99,,,-99.99,,2013-01-27 14:01:00,
2013-01-27 06:11:00,56.0,45.0,-100.00,North,-999,-999.0,-999.0,64,-99.99,,,-99.99,,2013-01-27 14:11:00,
2013-01-27 06:21:00,56.0,45.0,-100.00,North,-999,-999.0,-999.0,64,-99.99,,,-99.99,,2013-01-27 14:21:00,
2013-01-27 06:33:00,-999.0,-99.9,-100.00,SSE,151,5.0,-999.0,-999,-99.99,,,-99.99,,2013-01-27 14:33:00,
2013-01-27 06:43:00,-999.0,-99.9,-100.00,SSE,151,7.0,-999.0,-999,-99.99,,,-99.99,,2013-01-27 14:43:00,
2013-01-27 06:53:00,-999.0,-99.9,-100.00,SSE,157,6.0,-999.0,-999,-99.99,,,-99.99,,2013-01-27 14:53:00,
2013-01-27 07:02:00,-999.0,-99.9,-100.00,SSE,151,7.0,-999.0,-999,-99.99,,,-99.99,,2013-01-27 15:02:00,
2013-01-27 07:12:00,-999.0,-99.9,-100.00,SSE,151,7.0,-999.0,-999,-99.99,,,-99.99,,2013-01-27 15:12:00,
2013-01-27 07:22:00,-999.0,-99.9,-100.00,SSE,151,7.0,-999.0,-999,-99.99,,,-99.99,,2013-01-27 15:22:00,
2013-01-27 07:33:00,-999.0,-99.9,-100.00,SSE,151,7.0,-999.0,-999,-99.99,,,-99.99,,2013-01-27 15:33:00,
2013-01-27 07:43:00,-999.0,-99.9,-100.00,SSE,168,4.0,-999.0,-999,-99.99,,,-99.99,,2013-01-27 15:43:00,
2013-01-27 07:53:00,-999.0,-99.9,-100.00,SE,135,4.0,-999.0,-999,-99.99,,,-99.99,,2013-01-27 15:53:00,
2013-01-27 08:03:00,-999.0,-99.9,-100.00,South,174,5.0,-999.0,-999,-99.99,,,-99.99,,2013-01-27 16:03:00,
2013-01-27 08:22:00,-999.0,-99.9,-100.00,South,185,4.0,-999.0,-999,-99.99,,,-99.99,,2013-01-27 16:22:00,
2013-01-27 08:33:00,-999.0,-99.9,-100.00,South,174,3.0,-999.0,-999,-99.99,,,-99.99,,2013-01-27 16:33:00,
2013-01-27 08:42:00,-999.0,-99.9,-100.00,SSE,151,3.0,-999.0,-999,-99.99,,,-99.99,,2013-01-27 16:42:00,
2013-01-27 08:53:00,-999.0,-99.9,-100.00,SSE,151,3.0,-999.0,-999,-99.99,,,-99.99,,2013-01-27 16:53:00,
2013-01-27 09:02:00,-999.0,-99.9,-100.00,SSE,151,3.0,-999.0,-999,-99.99,,,-99.99,,2013-01-27 17:02:00,
2013-01-27 09:12:00,-999.0,-99.9,-100.00,ESE,123,1.0,-999.0,-999,-99.99,,,-99.99,,2013-01-27 17:12:00,
2013-01-27 09:22:00,-999.0,-99.9,-100.00,ESE,123,1.0,-999.0,-999,-99.99,,,-99.99,,2013-01-27 17:22:00,
2013-01-27 09:33:00,-999.0,-99.9,-100.00,SSW,196,2.0,-999.0,-999,-99.99,,,-99.99,,2013-01-27 17:33:00,
2013-01-27 09:42:00,64.0,-99.9,-100.00,North,-999,-999.0,-999.0,-999,-99.99,,,-99.99,,2013-01-27 17:42:00,
2013-01-27 09:53:00,-999.0,-99.9,-100.00,SSE,168,2.0,-999.0,-999,-99.99,,,-99.99,,2013-01-27 17:53:00,
2013-01-27 10:03:00,-999.0,-99.9,-100.00,SSE,157,7.0,-999.0,-999,-99.99,,,-99.99,,2013-01-27 18:03:00,
2013-01-27 10:12:00,-999.0,-99.9,-100.00,South,185,9.0,-999.0,-999,-99.99,,,-99.99,,2013-01-27 18:12:00,
2013-01-27 10:23:00,-999.0,-99.9,-100.00,South,185,9.0,-999.0,-999,-99.99,,,-99.99,,2013-01-27 18:23:00,
2013-01-27 10:33:00,-999.0,-99.9,-100.00,SSW,213,9.0,-999.0,-999,-99.99,,,-99.99,,2013-01-27 18:33:00,
2013-01-27 10:42:00,-999.0,-99.9,-100.00,SW,219,7.0,-999.0,-999,-99.99,,,-99.99,,2013-01-27 18:42:00,
2013-01-27 10:53:00,-999.0,-99.9,-100.00,SW,219,7.0,-999.0,-999,-99.99,,,-99.99,,2013-01-27 18:53:00,
2013-01-27 11:02:00,-999.0,-99.9,-100.00,South,174,10.0,-999.0,-999,-99.99,,,-99.99,,2013-01-27 19:02:00,
2013-01-27 11:12:00,-999.0,-99.9,-100.00,South,191,8.0,-999.0,-999,-99.99,,,-99.99,,2013-01-27 19:12:00,
2013-01-27 11:22:00,-999.0,-99.9,-100.00,WSW,247,6.0,-999.0,-999,-99.99,,,-99.99,,2013-01-27 19:22:00,
2013-01-27 11:33:00,-999.0,-99.9,-100.00,SSW,202,7.0,-999.0,-999,-99.99,,,-99.99,,2013-01-27 19:33:00,
2013-01-27 11:42:00,-999.0,-99.9,-100.00,WNW,292,9.0,-999.0,-999,-99.99,,,-99.99,,2013-01-27 19:42:00,
2013-01-27 11:52:00,-999.0,-99.9,-100.00,WNW,292,9.0,-999.0,-999,-99.99,,,-99.99,,2013-01-27 19:52:00,
2013-01-27 12:02:00,64.0,43.0,-100.00,North,-999,-999.0,-999.0,46,-99.99,,,0.00,,2013-01-27 20:02:00,
2013-01-27 12:12:00,-999.0,-99.9,-100.00,SSW,208,12.0,-999.0,-999,-99.99,,,-99.99,,2013-01-27 20:12:00,
2013-01-27 12:22:00,-999.0,-99.9,-100.00,SW,225,9.0,-999.0,-999,-99.99,,,-99.99,,2013-01-27 20:22:00,
2013-01-27 12:33:00,-999.0,-99.9,-100.00,SW,230,10.0,-999.0,-999,-99.99,,,-99.99,,2013-01-27 20:33:00,
2013-01-27 12:43:00,-999.0,-99.9,-100.00,SSW,196,12.0,-999.0,-999,-99.99,,,-99.99,,2013-01-27 20:43:00,
2013-01-27 12:52:00,-999.0,-99.9,-100.00,SW,230,9.0,-999.0,-999,-99.99,,,-99.99,,2013-01-27 20:52:00,
2013-01-27 13:02:00,-999.0,-99.9,-100.00,WSW,241,10.0,-999.0,-999,-99.99,,,-99.99,,2013-01-27 21:02:00,
2013-01-27 13:23:00,-999.0,-99.9,-100.00,South,180,13.0,-999.0,-999,-99.99,,,-99.99,,2013-01-27 21:23:00,
2013-01-27 13:33:00,-999.0,-99.9,-100.00,SSW,213,10.0,-999.0,-999,-99.99,,,-99.99,,2013-01-27 21:33:00,
2013-01-27 13:43:00,-999.0,-99.9,-100.00,WSW,247,11.0,-999.0,-999,-99.99,,,-99.99,,2013-01-27 21:43:00,
2013-01-27 13:52:00,-999.0,-99.9,-100.00,SSW,208,11.0,-999.0,-999,-99.99,,,-99.99,,2013-01-27 21:52:00,
2013-01-27 14:03:00,-999.0,-99.9,-100.00,SSW,213,12.0,-999.0,-999,-99.99,,,-99.99,,2013-01-27 22:03:00,
2013-01-27 14:12:00,-999.0,-99.9,-100.00,SSW,202,12.0,-999.0,-999,-99.99,,,-99.99,,2013-01-27 22:12:00,
2013-01-27 14:22:00,-999.0,-99.9,-100.00,SW,219,13.0,-999.0,-999,-99.99,,,-99.99,,2013-01-27 22:22:00,
2013-01-27 14:33:00,-999.0,-99.9,-100.00,SSW,196,15.0,-999.0,-999,-99.99,,,-99.99,,2013-01-27 22:33:00,
2013-01-27 14:43:00,-999.0,-99.9,-100.00,SSW,196,12.0,-999.0,-999,-99.99,,,-99.99,,2013-01-27 22:43:00,
2013-01-27 14:52:00,-999.0,-99.9,-100.00,SSW,213,12.0,-999.0,-999,-99.99,,,-99.99,,2013-01-27 22:52:00,
2013-01-27 15:02:00,-999.0,-99.9,-100.00,SW,230,9.0,-999.0,-999,-99.99,,,-99.99,,2013-01-27 23:02:00,
2013-01-27 15:12:00,-999.0,-99.9,-100.00,South,191,13.0,-999.0,-999,-99.99,,,-99.99,,2013-01-27 23:12:00,
2013-01-27 15:22:00,-999.0,-99.9,-100.00,South,191,13.0,-999.0,-999,-99.99,,,-99.99,,2013-01-27 23:22:00,
2013-01-27 15:32:00,-999.0,-99.9,-100.00,SSW,202,10.0,-999.0,-999,-99.99,,,-99.99,,2013-01-27 23:32:00,
2013-01-27 15:42:00,-999.0,-99.9,-100.00,South,185,10.0,-999.0,-999,-99.99,,,-99.99,,2013-01-27 23:42:00,
2013-01-27 15:53:00,-999.0,-99.9,-100.00,WSW,241,7.0,-999.0,-999,-99.99,,,-99.99,,2013-01-27 23:53:00,
2013-01-27 16:02:00,-999.0,-99.9,-100.00,WSW,241,7.0,-999.0,-999,-99.99,,,-99.99,,2013-01-28 00:02:00,
2013-01-27 16:12:00,-999.0,-99.9,-100.00,SSE,163,8.0,-999.0,-999,-99.99,,,-99.99,,2013-01-28 00:12:00,
2013-01-27 16:22:00,-999.0,-99.9,-100.00,South,185,8.0,-999.0,-999,-99.99,,,-99.99,,2013-01-28 00:22:00,
2013-01-27 16:33:00,-999.0,-99.9,-100.00,SSW,208,7.0,-999.0,-999,-99.99,,,-99.99,,2013-01-28 00:33:00,
2013-01-27 16:42:00,-999.0,-99.9,-100.00,SSW,208,7.0,-999.0,-999,-99.99,,,-99.99,,2013-01-28 00:42:00,
2013-01-27 16:52:00,60.0,-99.9,-100.00,SW,230,8.0,-999.0,-999,-99.99,,,-99.99,,2013-01-28 00:52:00,
2013-01-27 17:02:00,60.0,-99.9,-100.00,SW,230,8.0,-999.0,-999,-99.99,,,-99.99,,2013-01-28 01:02:00,
2013-01-27 17:12:00,-999.0,-99.9,-100.00,SSW,196,6.0,-999.0,-999,-99.99,,,-99.99,,2013-01-28 01:12:00,
2013-01-27 17:22:00,58.0,-99.9,-100.00,North,-999,-999.0,-999.0,-999,-99.99,,,-99.99,,2013-01-28 01:22:00,
2013-01-27 17:33:00,-999.0,-99.9,-100.00,South,174,9.0,-999.0,-999,-99.99,,,-99.99,,2013-01-28 01:33:00,
2013-01-27 17:43:00,-999.0,-99.9,-100.00,South,185,11.0,-999.0,-999,-99.99,,,-99.99,,2013-01-28 01:43:00,
2013-01-27 17:52:00,-999.0,-99.9,-100.00,South,185,12.0,-999.0,-999,-99.99,,,-99.99,,2013-01-28 01:52:00,
2013-01-27 18:02:00,-999.0,-99.9,-100.00,South,180,8.0,-999.0,-999,-99.99,,,-99.99,,2013-01-28 02:02:00,
2013-01-27 18:12:00,-999.0,-99.9,-100.00,SSE,157,9.0,-999.0,-999,-99.99,,,-99.99,,2013-01-28 02:12:00,
2013-01-27 18:22:00,-999.0,-99.9,-100.00,South,191,8.0,-999.0,-999,-99.99,,,-99.99,,2013-01-28 02:22:00,
2013-01-27 18:32:00,-999.0,-99.9,-100.00,SSW,196,5.0,-999.0,-999,-99.99,,,-99.99,,2013-01-28 02:32:00,
2013-01-27 18:42:00,-999.0,-99.9,-100.00,SSW,196,5.0,-999.0,-999,-99.99,,,-99.99,,2013-01-28 02:42:00,
2013-01-27 18:53:00,-999.0,-99.9,-100.00,SW,219,3.0,-999.0,-999,-99.99,,,-99.99,,2013-01-28 02:53:00,
2013-01-27 19:02:00,-999.0,-99.9,-100.00,West,270,8.0,-999.0,-999,-99.99,,,-99.99,,2013-01-28 03:02:00,
2013-01-27 19:12:00,-999.0,-99.9,-100.00,West,270,7.0,-999.0,-999,-99.99,,,-99.99,,2013-01-28 03:12:00,
2013-01-27 19:22:00,-999.0,-99.9,-100.00,WSW,247,9.0,-999.0,-999,-99.99,,,-99.99,,2013-01-28 03:22:00,
2013-01-27 19:32:00,-999.0,-99.9,-100.00,WSW,247,14.0,-999.0,-999,-99.99,,,-99.99,,2013-01-28 03:32:00,
2013-01-27 19:42:00,-999.0,-99.9,-100.00,WSW,241,16.0,-999.0,-999,-99.99,,,-99.99,,2013-01-28 03:42:00,
2013-01-27 19:53:00,-999.0,-99.9,-100.00,WSW,253,14.0,-999.0,-999,-99.99,,,-99.99,,2013-01-28 03:53:00,
2013-01-27 20:02:00,-999.0,-99.9,-100.00,WNW,298,12.0,-999.0,-999,-99.99,,,-99.99,,2013-01-28 04:02:00,
2013-01-27 20:12:00,-999.0,-99.9,-100.00,WNW,292,10.0,-999.0,-999,-99.99,,,-99.99,,2013-01-28 04:12:00,
2013-01-27 20:22:00,-999.0,-99.9,-100.00,NNW,337,5.0,-999.0,-999,-99.99,,,-99.99,,2013-01-28 04:22:00,
2013-01-27 20:32:00,51.0,-99.9,-100.00,North,-999,-999.0,-999.0,-999,-99.99,,,-99.99,,2013-01-28 04:32:00,
2013-01-27 20:42:00,-999.0,-99.9,-100.00,West,275,13.0,-999.0,-999,-99.99,,,-99.99,,2013-01-28 04:42:00,
2013-01-27 20:52:00,-999.0,-99.9,-100.00,West,281,11.0,-999.0,-999,-99.99,,,-99.99,,2013-01-28 04:52:00,
2013-01-27 21:04:00,-999.0,-99.9,-100.00,West,264,10.0,-999.0,-999,-99.99,,,-99.99,,2013-01-28 05:04:00,
2013-01-27 21:12:00,-999.0,-99.9,-100.00,SW,236,11.0,-999.0,-999,-99.99,,,-99.99,,2013-01-28 05:12:00,
2013-01-27 21:22:00,-999.0,-99.9,-100.00,West,281,10.0,-999.0,-999,-99.99,,,-99.99,,2013-01-28 05:22:00,
2013-01-27 21:32:00,-999.0,-99.9,-100.00,West,270,8.0,-999.0,-999,-99.99,,,-99.99,,2013-01-28 05:32:00,
2013-01-27 21:42:00,-999.0,-99.9,-100.00,West,270,8.0,-999.0,-999,-99.99,,,-99.99,,2013-01-28 05:42:00,
2013-01-27 21:52:00,-999.0,-99.9,-100.00,West,270,8.0,-999.0,-999,-99.99,,,-99.99,,2013-01-28 05:52:00,
2013-01-27 22:02:00,-999.0,-99.9,-100.00,West,270,8.0,-999.0,-999,-99.99,,,-99.99,,2013-01-28 06:02:00,
2013-01-27 22:12:00,-999.0,-99.9,-100.00,North,-999,2.0,-999.0,-999,-99.99,,,-99.99,,2013-01-28 06:12:00,
2013-01-27 22:22:00,-999.0,-99.9,-100.00,North,-999,2.0,-999.0,-999,-99.99,,,-99.99,,2013-01-28 06:22:00,
2013-01-27 22:33:00,-999.0,-99.9,-100.00,North,-999,2.0,-999.0,-999,-99.99,,,-99.99,,2013-01-28 06:33:00,
2013-01-27 22:42:00,-999.0,-99.9,-100.00,North,-999,2.0,-999.0,-999,-99.99,,,-99.99,,2013-01-28 06:42:00,